Year,Month,Day,Hour,Minute,Value (Times are PST for temperature in C)
2010,07,18,00,00,13.50
2010,07,18,00,01,13.50
2010,07,18,00,02,13.50
2010,07,18,00,03,13.50
2010,07,18,00,04,13.50
2010,07,18,00,05,13.50
2010,07,18,00,06,13.50
2010,07,18,00,07,13.50
2010,07,18,00,08,13.50
2010,07,18,00,09,13.50
2010,07,18,00,10,13.50
2010,07,18,00,11,13.50
2010,07,18,00,12,13.50
2010,07,18,00,13,13.50
2010,07,18,00,14,13.50
2010,07,18,00,15,13.40
2010,07,18,00,16,13.40
2010,07,18,00,17,13.40
2010,07,18,00,18,13.40
2010,07,18,00,19,13.40
2010,07,18,00,20,13.40
2010,07,18,00,21,13.40
2010,07,18,00,22,13.40
2010,07,18,00,23,13.40
2010,07,18,00,24,13.40
2010,07,18,00,25,13.40
2010,07,18,00,26,13.40
2010,07,18,00,27,13.40
2010,07,18,00,28,13.40
2010,07,18,00,29,13.40
2010,07,18,00,30,13.40
2010,07,18,00,31,13.40
2010,07,18,00,32,13.30
2010,07,18,00,33,13.30
2010,07,18,00,34,13.30
2010,07,18,00,35,13.30
2010,07,18,00,36,13.30
2010,07,18,00,37,13.30
2010,07,18,00,38,13.30
2010,07,18,00,39,13.30
2010,07,18,00,40,13.30
2010,07,18,00,41,13.30
2010,07,18,00,42,13.30
2010,07,18,00,43,13.30
2010,07,18,00,44,13.20
2010,07,18,00,45,13.10
2010,07,18,00,46,13.10
2010,07,18,00,47,13.10
2010,07,18,00,48,13.00
2010,07,18,00,49,13.00
2010,07,18,00,50,13.00
2010,07,18,00,51,12.90
2010,07,18,00,52,12.90
2010,07,18,00,53,12.80
2010,07,18,00,54,12.80
2010,07,18,00,55,12.80
2010,07,18,00,56,12.80
2010,07,18,00,57,12.80
2010,07,18,00,58,12.80
2010,07,18,00,59,12.70
2010,07,18,01,00,12.70
2010,07,18,01,01,12.70
2010,07,18,01,02,12.70
2010,07,18,01,03,12.60
2010,07,18,01,04,12.60
2010,07,18,01,05,12.60
2010,07,18,01,06,12.60
2010,07,18,01,07,12.50
2010,07,18,01,08,12.50
2010,07,18,01,09,12.50
2010,07,18,01,10,12.50
2010,07,18,01,11,12.50
2010,07,18,01,12,12.50
2010,07,18,01,13,12.40
2010,07,18,01,14,12.40
2010,07,18,01,15,12.40
2010,07,18,01,16,12.40
2010,07,18,01,17,12.40
2010,07,18,01,18,12.40
2010,07,18,01,19,12.40
2010,07,18,01,20,12.40
2010,07,18,01,21,12.40
2010,07,18,01,22,12.30
2010,07,18,01,23,12.30
2010,07,18,01,24,12.30
2010,07,18,01,25,12.30
2010,07,18,01,26,12.30
2010,07,18,01,27,12.30
2010,07,18,01,28,12.30
2010,07,18,01,29,12.30
2010,07,18,01,30,12.30
2010,07,18,01,31,12.30
2010,07,18,01,32,12.30
2010,07,18,01,33,12.30
2010,07,18,01,34,12.30
2010,07,18,01,35,12.30
2010,07,18,01,36,12.20
2010,07,18,01,37,12.20
2010,07,18,01,38,12.20
2010,07,18,01,39,12.20
2010,07,18,01,40,12.20
2010,07,18,01,41,12.20
2010,07,18,01,42,12.10
2010,07,18,01,43,12.10
2010,07,18,01,44,12.10
2010,07,18,01,45,12.10
2010,07,18,01,46,12.10
2010,07,18,01,47,12.00
2010,07,18,01,48,12.00
2010,07,18,01,49,12.00
2010,07,18,01,50,12.00
2010,07,18,01,51,11.90
2010,07,18,01,52,11.90
2010,07,18,01,53,11.90
2010,07,18,01,54,11.90
2010,07,18,01,55,11.90
2010,07,18,01,56,11.90
2010,07,18,01,57,11.90
2010,07,18,01,58,11.90
2010,07,18,01,59,11.90
2010,07,18,02,00,11.90
2010,07,18,02,01,11.90
2010,07,18,02,02,11.90
2010,07,18,02,03,11.90
2010,07,18,02,04,11.80
2010,07,18,02,05,11.80
2010,07,18,02,06,11.80
2010,07,18,02,07,11.80
2010,07,18,02,08,11.80
2010,07,18,02,09,11.80
2010,07,18,02,10,11.80
2010,07,18,02,11,11.80
2010,07,18,02,12,11.80
2010,07,18,02,13,11.80
2010,07,18,02,14,11.80
2010,07,18,02,15,11.80
2010,07,18,02,16,11.80
2010,07,18,02,17,11.80
2010,07,18,02,18,11.70
2010,07,18,02,19,11.70
2010,07,18,02,20,11.70
2010,07,18,02,21,11.70
2010,07,18,02,22,11.70
2010,07,18,02,23,11.70
2010,07,18,02,24,11.70
2010,07,18,02,25,11.70
2010,07,18,02,26,11.70
2010,07,18,02,27,11.70
2010,07,18,02,28,11.70
2010,07,18,02,29,11.70
2010,07,18,02,30,11.70
2010,07,18,02,31,11.70
2010,07,18,02,32,11.70
2010,07,18,02,33,11.70
2010,07,18,02,34,11.70
2010,07,18,02,35,11.70
2010,07,18,02,36,11.70
2010,07,18,02,37,11.70
2010,07,18,02,38,11.70
2010,07,18,02,39,11.70
2010,07,18,02,40,11.70
2010,07,18,02,41,11.60
2010,07,18,02,42,11.60
2010,07,18,02,43,11.60
2010,07,18,02,44,11.60
2010,07,18,02,45,11.60
2010,07,18,02,46,11.60
2010,07,18,02,47,11.60
2010,07,18,02,48,11.60
2010,07,18,02,49,11.60
2010,07,18,02,50,11.60
2010,07,18,02,51,11.60
2010,07,18,02,52,11.60
2010,07,18,02,53,11.60
2010,07,18,02,54,11.60
2010,07,18,02,55,11.60
2010,07,18,02,56,11.60
2010,07,18,02,57,11.60
2010,07,18,02,58,11.60
2010,07,18,02,59,11.50
2010,07,18,03,00,11.40
2010,07,18,03,01,11.40
2010,07,18,03,02,11.40
2010,07,18,03,03,11.40
2010,07,18,03,04,11.40
2010,07,18,03,05,11.40
2010,07,18,03,06,11.40
2010,07,18,03,07,11.40
2010,07,18,03,08,11.40
2010,07,18,03,09,11.40
2010,07,18,03,10,11.40
2010,07,18,03,11,11.40
2010,07,18,03,12,11.40
2010,07,18,03,13,11.40
2010,07,18,03,14,11.40
2010,07,18,03,15,11.40
2010,07,18,03,16,11.40
2010,07,18,03,17,11.40
2010,07,18,03,18,11.40
2010,07,18,03,19,11.40
2010,07,18,03,20,11.40
2010,07,18,03,21,11.40
2010,07,18,03,22,11.40
2010,07,18,03,23,11.40
2010,07,18,03,24,11.40
2010,07,18,03,25,11.40
2010,07,18,03,26,11.40
2010,07,18,03,27,11.40
2010,07,18,03,28,11.40
2010,07,18,03,29,11.40
2010,07,18,03,30,11.40
2010,07,18,03,31,11.40
2010,07,18,03,32,11.40
2010,07,18,03,33,11.40
2010,07,18,03,34,11.40
2010,07,18,03,35,11.40
2010,07,18,03,36,11.40
2010,07,18,03,37,11.40
2010,07,18,03,38,11.40
2010,07,18,03,39,11.40
2010,07,18,03,40,11.40
2010,07,18,03,41,11.40
2010,07,18,03,42,11.40
2010,07,18,03,43,11.40
2010,07,18,03,44,11.40
2010,07,18,03,45,11.30
2010,07,18,03,46,11.30
2010,07,18,03,47,11.30
2010,07,18,03,48,11.30
2010,07,18,03,49,11.30
2010,07,18,03,50,11.20
2010,07,18,03,51,11.20
2010,07,18,03,52,11.30
2010,07,18,03,53,11.30
2010,07,18,03,54,11.30
2010,07,18,03,55,11.20
2010,07,18,03,56,11.20
2010,07,18,03,57,11.20
2010,07,18,03,58,11.20
2010,07,18,03,59,11.20
2010,07,18,04,00,11.20
2010,07,18,04,01,11.20
2010,07,18,04,02,11.20
2010,07,18,04,03,11.20
2010,07,18,04,04,11.20
2010,07,18,04,05,11.20
2010,07,18,04,06,11.20
2010,07,18,04,07,11.20
2010,07,18,04,08,11.20
2010,07,18,04,09,11.20
2010,07,18,04,10,11.20
2010,07,18,04,11,11.20
2010,07,18,04,12,11.20
2010,07,18,04,13,11.20
2010,07,18,04,14,11.20
2010,07,18,04,15,11.20
2010,07,18,04,16,11.20
2010,07,18,04,17,11.20
2010,07,18,04,18,11.20
2010,07,18,04,19,11.20
2010,07,18,04,20,11.20
2010,07,18,04,21,11.20
2010,07,18,04,22,11.20
2010,07,18,04,23,11.20
2010,07,18,04,24,11.20
2010,07,18,04,25,11.20
2010,07,18,04,26,11.20
2010,07,18,04,27,11.10
2010,07,18,04,28,11.10
2010,07,18,04,29,11.10
2010,07,18,04,30,11.10
2010,07,18,04,31,11.10
2010,07,18,04,32,11.10
2010,07,18,04,33,11.10
2010,07,18,04,34,11.10
2010,07,18,04,35,11.10
2010,07,18,04,36,11.10
2010,07,18,04,37,11.10
2010,07,18,04,38,11.10
2010,07,18,04,39,11.10
2010,07,18,04,40,11.10
2010,07,18,04,41,11.00
2010,07,18,04,42,10.90
2010,07,18,04,43,10.90
2010,07,18,04,44,10.90
2010,07,18,04,45,10.90
2010,07,18,04,46,10.90
2010,07,18,04,47,10.90
2010,07,18,04,48,10.90
2010,07,18,04,49,10.90
2010,07,18,04,50,10.90
2010,07,18,04,51,10.90
2010,07,18,04,52,10.90
2010,07,18,04,53,10.90
2010,07,18,04,54,10.90
2010,07,18,04,55,10.90
2010,07,18,04,56,10.90
2010,07,18,04,57,10.90
2010,07,18,04,58,10.90
2010,07,18,04,59,10.90
2010,07,18,05,00,10.90
2010,07,18,05,01,11.00
2010,07,18,05,02,11.10
2010,07,18,05,03,11.10
2010,07,18,05,04,11.10
2010,07,18,05,05,11.10
2010,07,18,05,06,11.10
2010,07,18,05,07,11.10
2010,07,18,05,08,11.10
2010,07,18,05,09,11.10
2010,07,18,05,10,11.10
2010,07,18,05,11,11.10
2010,07,18,05,12,11.00
2010,07,18,05,13,10.90
2010,07,18,05,14,10.90
2010,07,18,05,15,10.90
2010,07,18,05,16,10.90
2010,07,18,05,17,10.90
2010,07,18,05,18,10.90
2010,07,18,05,19,10.90
2010,07,18,05,20,10.90
2010,07,18,05,21,10.90
2010,07,18,05,22,10.90
2010,07,18,05,23,10.90
2010,07,18,05,24,10.80
2010,07,18,05,25,10.80
2010,07,18,05,26,10.80
2010,07,18,05,27,10.80
2010,07,18,05,28,10.80
2010,07,18,05,29,10.80
2010,07,18,05,30,10.80
2010,07,18,05,31,10.80
2010,07,18,05,32,10.80
2010,07,18,05,33,10.80
2010,07,18,05,34,10.80
2010,07,18,05,35,10.80
2010,07,18,05,36,10.80
2010,07,18,05,37,10.80
2010,07,18,05,38,10.80
2010,07,18,05,39,10.80
2010,07,18,05,40,10.80
2010,07,18,05,41,10.80
2010,07,18,05,42,10.80
2010,07,18,05,43,10.80
2010,07,18,05,44,10.80
2010,07,18,05,45,10.80
2010,07,18,05,46,10.80
2010,07,18,05,47,10.80
2010,07,18,05,48,10.70
2010,07,18,05,49,10.70
2010,07,18,05,50,10.70
2010,07,18,05,51,10.70
2010,07,18,05,52,10.70
2010,07,18,05,53,10.70
2010,07,18,05,54,10.70
2010,07,18,05,55,10.70
2010,07,18,05,56,10.70
2010,07,18,05,57,10.70
2010,07,18,05,58,10.80
2010,07,18,05,59,10.80
2010,07,18,06,00,10.80
2010,07,18,06,01,10.80
2010,07,18,06,02,10.80
2010,07,18,06,03,10.90
2010,07,18,06,04,10.90
2010,07,18,06,05,10.90
2010,07,18,06,06,10.90
2010,07,18,06,07,10.90
2010,07,18,06,08,11.00
2010,07,18,06,09,11.10
2010,07,18,06,10,11.10
2010,07,18,06,11,11.20
2010,07,18,06,12,11.20
2010,07,18,06,13,11.30
2010,07,18,06,14,11.30
2010,07,18,06,15,11.40
2010,07,18,06,16,11.40
2010,07,18,06,17,11.40
2010,07,18,06,18,11.60
2010,07,18,06,19,11.60
2010,07,18,06,20,11.60
2010,07,18,06,21,11.70
2010,07,18,06,22,11.80
2010,07,18,06,23,11.80
2010,07,18,06,24,11.90
2010,07,18,06,25,11.90
2010,07,18,06,26,12.00
2010,07,18,06,27,12.00
2010,07,18,06,28,12.10
2010,07,18,06,29,12.10
2010,07,18,06,30,12.20
2010,07,18,06,31,12.20
2010,07,18,06,32,12.20
2010,07,18,06,33,12.20
2010,07,18,06,34,12.20
2010,07,18,06,35,12.20
2010,07,18,06,36,12.20
2010,07,18,06,37,12.20
2010,07,18,06,38,12.30
2010,07,18,06,39,12.30
2010,07,18,06,40,12.30
2010,07,18,06,41,12.30
2010,07,18,06,42,12.30
2010,07,18,06,43,12.30
2010,07,18,06,44,12.30
2010,07,18,06,45,12.30
2010,07,18,06,46,12.30
2010,07,18,06,47,12.30
2010,07,18,06,48,12.30
2010,07,18,06,49,12.30
2010,07,18,06,50,12.30
2010,07,18,06,51,12.30
2010,07,18,06,52,12.30
2010,07,18,06,53,12.30
2010,07,18,06,54,12.40
2010,07,18,06,55,12.40
2010,07,18,06,56,12.40
2010,07,18,06,57,12.50
2010,07,18,06,58,12.50
2010,07,18,06,59,12.60
2010,07,18,07,00,12.60
2010,07,18,07,01,12.70
2010,07,18,07,02,12.70
2010,07,18,07,03,12.70
2010,07,18,07,04,12.70
2010,07,18,07,05,12.70
2010,07,18,07,06,12.80
2010,07,18,07,07,12.80
2010,07,18,07,08,12.80
2010,07,18,07,09,12.80
2010,07,18,07,10,12.90
2010,07,18,07,11,13.00
2010,07,18,07,12,13.00
2010,07,18,07,13,13.10
2010,07,18,07,14,13.10
2010,07,18,07,15,13.20
2010,07,18,07,16,13.20
2010,07,18,07,17,13.30
2010,07,18,07,18,13.30
2010,07,18,07,19,13.30
2010,07,18,07,20,13.40
2010,07,18,07,21,13.40
2010,07,18,07,22,13.40
2010,07,18,07,23,13.40
2010,07,18,07,24,13.40
2010,07,18,07,25,13.40
2010,07,18,07,26,13.30
2010,07,18,07,27,13.30
2010,07,18,07,28,13.30
2010,07,18,07,29,13.30
2010,07,18,07,30,13.30
2010,07,18,07,31,13.30
2010,07,18,07,32,13.30
2010,07,18,07,33,13.20
2010,07,18,07,34,13.20
2010,07,18,07,35,13.10
2010,07,18,07,36,13.10
2010,07,18,07,37,13.10
2010,07,18,07,38,13.10
2010,07,18,07,39,13.10
2010,07,18,07,40,13.10
2010,07,18,07,41,13.20
2010,07,18,07,42,13.20
2010,07,18,07,43,13.30
2010,07,18,07,44,13.30
2010,07,18,07,45,13.40
2010,07,18,07,46,13.40
2010,07,18,07,47,13.50
2010,07,18,07,48,13.50
2010,07,18,07,49,13.60
2010,07,18,07,50,13.60
2010,07,18,07,51,13.60
2010,07,18,07,52,13.70
2010,07,18,07,53,13.70
2010,07,18,07,54,13.70
2010,07,18,07,55,13.80
2010,07,18,07,56,13.90
2010,07,18,07,57,13.90
2010,07,18,07,58,13.90
2010,07,18,07,59,14.00
2010,07,18,08,00,14.00
2010,07,18,08,01,14.10
2010,07,18,08,02,14.10
2010,07,18,08,03,14.20
2010,07,18,08,04,14.20
2010,07,18,08,05,14.20
2010,07,18,08,06,14.20
2010,07,18,08,07,14.30
2010,07,18,08,08,14.40
2010,07,18,08,09,14.50
2010,07,18,08,10,14.50
2010,07,18,08,11,14.60
2010,07,18,08,12,14.70
2010,07,18,08,13,14.70
2010,07,18,08,14,14.60
2010,07,18,08,15,14.40
2010,07,18,08,16,14.20
2010,07,18,08,17,14.10
2010,07,18,08,18,14.00
2010,07,18,08,19,13.90
2010,07,18,08,20,13.90
2010,07,18,08,21,13.80
2010,07,18,08,22,13.80
2010,07,18,08,23,13.80
2010,07,18,08,24,13.80
2010,07,18,08,25,13.70
2010,07,18,08,26,13.60
2010,07,18,08,27,13.50
2010,07,18,08,28,13.40
2010,07,18,08,29,13.30
2010,07,18,08,30,13.30
2010,07,18,08,31,13.30
2010,07,18,08,32,13.30
2010,07,18,08,33,13.30
2010,07,18,08,34,13.30
2010,07,18,08,35,13.30
2010,07,18,08,36,13.30
2010,07,18,08,37,13.30
2010,07,18,08,38,13.30
2010,07,18,08,39,13.30
2010,07,18,08,40,13.30
2010,07,18,08,41,13.30
2010,07,18,08,42,13.30
2010,07,18,08,43,13.30
2010,07,18,08,44,13.20
2010,07,18,08,45,13.20
2010,07,18,08,46,13.20
2010,07,18,08,47,13.20
2010,07,18,08,48,13.20
2010,07,18,08,49,13.20
2010,07,18,08,50,13.20
2010,07,18,08,51,13.10
2010,07,18,08,52,13.10
2010,07,18,08,53,13.10
2010,07,18,08,54,13.20
2010,07,18,08,55,13.30
2010,07,18,08,56,13.30
2010,07,18,08,57,13.30
2010,07,18,08,58,13.40
2010,07,18,08,59,13.50
2010,07,18,09,00,13.60
2010,07,18,09,01,13.60
2010,07,18,09,02,13.60
2010,07,18,09,03,13.70
2010,07,18,09,04,13.80
2010,07,18,09,05,13.90
2010,07,18,09,06,14.00
2010,07,18,09,07,14.10
2010,07,18,09,08,14.20
2010,07,18,09,09,14.30
2010,07,18,09,10,14.40
2010,07,18,09,11,14.50
2010,07,18,09,12,14.60
2010,07,18,09,13,14.60
2010,07,18,09,14,14.70
2010,07,18,09,15,14.70
2010,07,18,09,16,14.80
2010,07,18,09,17,14.80
2010,07,18,09,18,14.90
2010,07,18,09,19,14.90
2010,07,18,09,20,14.90
2010,07,18,09,21,14.90
2010,07,18,09,22,15.00
2010,07,18,09,23,15.00
2010,07,18,09,24,15.10
2010,07,18,09,25,15.20
2010,07,18,09,26,15.30
2010,07,18,09,27,15.40
2010,07,18,09,28,15.50
2010,07,18,09,29,15.60
2010,07,18,09,30,15.70
2010,07,18,09,31,15.70
2010,07,18,09,32,15.80
2010,07,18,09,33,15.80
2010,07,18,09,34,15.80
2010,07,18,09,35,15.80
2010,07,18,09,36,15.80
2010,07,18,09,37,15.80
2010,07,18,09,38,15.80
2010,07,18,09,39,15.70
2010,07,18,09,40,15.70
2010,07,18,09,41,15.70
2010,07,18,09,42,15.80
2010,07,18,09,43,15.80
2010,07,18,09,44,15.80
2010,07,18,09,45,15.80
2010,07,18,09,46,15.80
2010,07,18,09,47,15.80
2010,07,18,09,48,15.90
2010,07,18,09,49,16.00
2010,07,18,09,50,16.10
2010,07,18,09,51,16.10
2010,07,18,09,52,16.10
2010,07,18,09,53,16.10
2010,07,18,09,54,16.10
2010,07,18,09,55,16.10
2010,07,18,09,56,16.20
2010,07,18,09,57,16.20
2010,07,18,09,58,16.30
2010,07,18,09,59,16.30
2010,07,18,10,00,16.40
2010,07,18,10,01,16.40
2010,07,18,10,02,16.40
2010,07,18,10,03,16.40
2010,07,18,10,04,16.50
2010,07,18,10,05,16.60
2010,07,18,10,06,16.50
2010,07,18,10,07,16.40
2010,07,18,10,08,16.30
2010,07,18,10,09,16.10
2010,07,18,10,10,16.00
2010,07,18,10,11,15.90
2010,07,18,10,12,15.90
2010,07,18,10,13,15.90
2010,07,18,10,14,15.90
2010,07,18,10,15,16.00
2010,07,18,10,16,16.10
2010,07,18,10,17,16.20
2010,07,18,10,18,16.30
2010,07,18,10,19,16.40
2010,07,18,10,20,16.40
2010,07,18,10,21,16.40
2010,07,18,10,22,16.40
2010,07,18,10,23,16.40
2010,07,18,10,24,16.40
2010,07,18,10,25,16.40
2010,07,18,10,26,16.30
2010,07,18,10,27,16.30
2010,07,18,10,28,16.30
2010,07,18,10,29,16.40
2010,07,18,10,30,16.40
2010,07,18,10,31,16.40
2010,07,18,10,32,16.40
2010,07,18,10,33,16.20
2010,07,18,10,34,16.10
2010,07,18,10,35,15.90
2010,07,18,10,36,15.80
2010,07,18,10,37,15.80
2010,07,18,10,38,15.70
2010,07,18,10,39,15.60
2010,07,18,10,40,15.50
2010,07,18,10,41,15.50
2010,07,18,10,42,15.50
2010,07,18,10,43,15.50
2010,07,18,10,44,15.50
2010,07,18,10,45,15.60
2010,07,18,10,46,15.60
2010,07,18,10,47,15.50
2010,07,18,10,48,15.50
2010,07,18,10,49,15.50
2010,07,18,10,50,15.40
2010,07,18,10,51,15.20
2010,07,18,10,52,15.00
2010,07,18,10,53,14.80
2010,07,18,10,54,14.70
2010,07,18,10,55,14.40
2010,07,18,10,56,14.30
2010,07,18,10,57,14.20
2010,07,18,10,58,14.20
2010,07,18,10,59,14.30
2010,07,18,11,00,14.30
2010,07,18,11,01,14.30
2010,07,18,11,02,14.30
2010,07,18,11,03,14.30
2010,07,18,11,04,14.40
2010,07,18,11,05,14.40
2010,07,18,11,06,14.40
2010,07,18,11,07,14.40
2010,07,18,11,08,14.30
2010,07,18,11,09,14.30
2010,07,18,11,10,14.30
2010,07,18,11,11,14.40
2010,07,18,11,12,14.40
2010,07,18,11,13,14.40
2010,07,18,11,14,14.30
2010,07,18,11,15,14.10
2010,07,18,11,16,14.00
2010,07,18,11,17,13.90
2010,07,18,11,18,13.90
2010,07,18,11,19,13.90
2010,07,18,11,20,13.90
2010,07,18,11,21,13.90
2010,07,18,11,22,13.80
2010,07,18,11,23,13.70
2010,07,18,11,24,13.70
2010,07,18,11,25,13.70
2010,07,18,11,26,13.70
2010,07,18,11,27,13.70
2010,07,18,11,28,13.70
2010,07,18,11,29,13.70
2010,07,18,11,30,13.60
2010,07,18,11,31,13.50
2010,07,18,11,32,13.40
2010,07,18,11,33,13.40
2010,07,18,11,34,13.40
2010,07,18,11,35,13.40
2010,07,18,11,36,13.40
2010,07,18,11,37,13.40
2010,07,18,11,38,13.40
2010,07,18,11,39,13.30
2010,07,18,11,40,13.20
2010,07,18,11,41,13.20
2010,07,18,11,42,13.30
2010,07,18,11,43,13.30
2010,07,18,11,44,13.20
2010,07,18,11,45,13.20
2010,07,18,11,46,13.20
2010,07,18,11,47,13.20
2010,07,18,11,48,13.20
2010,07,18,11,49,13.20
2010,07,18,11,50,13.20
2010,07,18,11,51,13.20
2010,07,18,11,52,13.20
2010,07,18,11,53,13.20
2010,07,18,11,54,13.30
2010,07,18,11,55,13.30
2010,07,18,11,56,13.30
2010,07,18,11,57,13.30
2010,07,18,11,58,13.30
2010,07,18,11,59,13.30
2010,07,18,12,00,13.30
2010,07,18,12,01,13.30
2010,07,18,12,02,13.30
2010,07,18,12,03,13.30
2010,07,18,12,04,13.30
2010,07,18,12,05,13.30
2010,07,18,12,06,13.30
2010,07,18,12,07,13.20
2010,07,18,12,08,13.10
2010,07,18,12,09,12.90
2010,07,18,12,10,12.80
2010,07,18,12,11,12.80
2010,07,18,12,12,12.70
2010,07,18,12,13,12.70
2010,07,18,12,14,12.70
2010,07,18,12,15,12.60
2010,07,18,12,16,12.60
2010,07,18,12,17,12.60
2010,07,18,12,18,12.60
2010,07,18,12,19,12.70
2010,07,18,12,20,12.80
2010,07,18,12,21,12.90
2010,07,18,12,22,13.00
2010,07,18,12,23,13.10
2010,07,18,12,24,13.30
2010,07,18,12,25,13.40
2010,07,18,12,26,13.40
2010,07,18,12,27,13.50
2010,07,18,12,28,13.60
2010,07,18,12,29,13.60
2010,07,18,12,30,13.70
2010,07,18,12,31,13.70
2010,07,18,12,32,13.80
2010,07,18,12,33,13.80
2010,07,18,12,34,13.80
2010,07,18,12,35,13.90
2010,07,18,12,36,13.90
2010,07,18,12,37,13.90
2010,07,18,12,38,13.90
2010,07,18,12,39,14.00
2010,07,18,12,40,14.10
2010,07,18,12,41,14.20
2010,07,18,12,42,14.20
2010,07,18,12,43,14.20
2010,07,18,12,44,14.20
2010,07,18,12,45,14.30
2010,07,18,12,46,14.40
2010,07,18,12,47,14.50
2010,07,18,12,48,14.50
2010,07,18,12,49,14.60
2010,07,18,12,50,14.60
2010,07,18,12,51,14.60
2010,07,18,12,52,14.60
2010,07,18,12,53,14.60
2010,07,18,12,54,14.70
2010,07,18,12,55,14.70
2010,07,18,12,56,14.60
2010,07,18,12,57,14.60
2010,07,18,12,58,14.60
2010,07,18,12,59,14.60
2010,07,18,13,00,14.60
2010,07,18,13,01,14.70
2010,07,18,13,02,14.80
2010,07,18,13,03,14.80
2010,07,18,13,04,14.80
2010,07,18,13,05,14.90
2010,07,18,13,06,14.90
2010,07,18,13,07,14.90
2010,07,18,13,08,14.90
2010,07,18,13,09,14.90
2010,07,18,13,10,14.90
2010,07,18,13,11,15.00
2010,07,18,13,12,15.00
2010,07,18,13,13,15.00
2010,07,18,13,14,15.00
2010,07,18,13,15,15.10
2010,07,18,13,16,15.20
2010,07,18,13,17,15.20
2010,07,18,13,18,15.20
2010,07,18,13,19,15.30
2010,07,18,13,20,15.30
2010,07,18,13,21,15.30
2010,07,18,13,22,15.20
2010,07,18,13,23,15.10
2010,07,18,13,24,15.00
2010,07,18,13,25,15.00
2010,07,18,13,26,14.90
2010,07,18,13,27,15.00
2010,07,18,13,28,15.00
2010,07,18,13,29,15.00
2010,07,18,13,30,15.10
2010,07,18,13,31,15.10
2010,07,18,13,32,15.10
2010,07,18,13,33,15.10
2010,07,18,13,34,15.10
2010,07,18,13,35,15.10
2010,07,18,13,36,15.10
2010,07,18,13,37,15.20
2010,07,18,13,38,15.10
2010,07,18,13,39,15.00
2010,07,18,13,40,15.00
2010,07,18,13,41,14.90
2010,07,18,13,42,14.90
2010,07,18,13,43,14.80
2010,07,18,13,44,14.80
2010,07,18,13,45,14.80
2010,07,18,13,46,14.90
2010,07,18,13,47,14.90
2010,07,18,13,48,15.00
2010,07,18,13,49,15.10
2010,07,18,13,50,15.10
2010,07,18,13,51,15.10
2010,07,18,13,52,15.00
2010,07,18,13,53,15.00
2010,07,18,13,54,15.00
2010,07,18,13,55,15.00
2010,07,18,13,56,15.00
2010,07,18,13,57,15.00
2010,07,18,13,58,15.00
2010,07,18,13,59,14.90
2010,07,18,14,00,14.90
2010,07,18,14,01,14.90
2010,07,18,14,02,15.00
2010,07,18,14,03,15.00
2010,07,18,14,04,15.00
2010,07,18,14,05,15.00
2010,07,18,14,06,15.00
2010,07,18,14,07,15.00
2010,07,18,14,08,15.00
2010,07,18,14,09,15.00
2010,07,18,14,10,14.80
2010,07,18,14,11,14.80
2010,07,18,14,12,14.70
2010,07,18,14,13,14.60
2010,07,18,14,14,14.50
2010,07,18,14,15,14.40
2010,07,18,14,16,14.40
2010,07,18,14,17,14.40
2010,07,18,14,18,14.50
2010,07,18,14,19,14.50
2010,07,18,14,20,14.50
2010,07,18,14,21,14.50
2010,07,18,14,22,14.50
2010,07,18,14,23,14.50
2010,07,18,14,24,14.50
2010,07,18,14,25,14.50
2010,07,18,14,26,14.50
2010,07,18,14,27,14.40
2010,07,18,14,28,14.50
2010,07,18,14,29,14.50
2010,07,18,14,30,14.60
2010,07,18,14,31,14.60
2010,07,18,14,32,14.70
2010,07,18,14,33,14.80
2010,07,18,14,34,14.80
2010,07,18,14,35,14.80
2010,07,18,14,36,14.90
2010,07,18,14,37,14.90
2010,07,18,14,38,14.90
2010,07,18,14,39,15.00
2010,07,18,14,40,15.00
2010,07,18,14,41,15.10
2010,07,18,14,42,15.10
2010,07,18,14,43,15.20
2010,07,18,14,44,15.20
2010,07,18,14,45,15.20
2010,07,18,14,46,15.30
2010,07,18,14,47,15.20
2010,07,18,14,48,15.10
2010,07,18,14,49,15.00
2010,07,18,14,50,15.00
2010,07,18,14,51,14.90
2010,07,18,14,52,14.80
2010,07,18,14,53,14.80
2010,07,18,14,54,14.80
2010,07,18,14,55,14.80
2010,07,18,14,56,14.80
2010,07,18,14,57,14.80
2010,07,18,14,58,14.80
2010,07,18,14,59,14.80
2010,07,18,15,00,14.90
2010,07,18,15,01,14.90
2010,07,18,15,02,15.00
2010,07,18,15,03,15.10
2010,07,18,15,04,15.10
2010,07,18,15,05,15.20
2010,07,18,15,06,15.20
2010,07,18,15,07,15.20
2010,07,18,15,08,15.30
2010,07,18,15,09,15.30
2010,07,18,15,10,15.30
2010,07,18,15,11,15.40
2010,07,18,15,12,15.50
2010,07,18,15,13,15.50
2010,07,18,15,14,15.50
2010,07,18,15,15,15.50
2010,07,18,15,16,15.40
2010,07,18,15,17,15.40
2010,07,18,15,18,15.40
2010,07,18,15,19,15.30
2010,07,18,15,20,15.30
2010,07,18,15,21,15.40
2010,07,18,15,22,15.40
2010,07,18,15,23,15.40
2010,07,18,15,24,15.50
2010,07,18,15,25,15.50
2010,07,18,15,26,15.60
2010,07,18,15,27,15.60
2010,07,18,15,28,15.70
2010,07,18,15,29,15.80
2010,07,18,15,30,15.80
2010,07,18,15,31,15.70
2010,07,18,15,32,15.70
2010,07,18,15,33,15.70
2010,07,18,15,34,15.70
2010,07,18,15,35,15.80
2010,07,18,15,36,15.80
2010,07,18,15,37,15.80
2010,07,18,15,38,15.90
2010,07,18,15,39,15.90
2010,07,18,15,40,16.00
2010,07,18,15,41,16.10
2010,07,18,15,42,16.10
2010,07,18,15,43,16.10
2010,07,18,15,44,16.10
2010,07,18,15,45,16.00
2010,07,18,15,46,15.90
2010,07,18,15,47,16.00
2010,07,18,15,48,16.10
2010,07,18,15,49,16.20
2010,07,18,15,50,16.30
2010,07,18,15,51,16.30
2010,07,18,15,52,16.30
2010,07,18,15,53,16.40
2010,07,18,15,54,16.40
2010,07,18,15,55,16.50
2010,07,18,15,56,16.40
2010,07,18,15,57,16.40
2010,07,18,15,58,16.40
2010,07,18,15,59,16.50
2010,07,18,16,00,16.60
2010,07,18,16,01,16.60
2010,07,18,16,02,16.70
2010,07,18,16,03,16.70
2010,07,18,16,04,16.70
2010,07,18,16,05,16.80
2010,07,18,16,06,16.90
2010,07,18,16,07,16.90
2010,07,18,16,08,17.00
2010,07,18,16,09,17.00
2010,07,18,16,10,17.10
2010,07,18,16,11,17.10
2010,07,18,16,12,17.20
2010,07,18,16,13,17.20
2010,07,18,16,14,17.10
2010,07,18,16,15,17.10
2010,07,18,16,16,17.20
2010,07,18,16,17,17.30
2010,07,18,16,18,17.30
2010,07,18,16,19,17.30
2010,07,18,16,20,17.30
2010,07,18,16,21,17.30
2010,07,18,16,22,17.30
2010,07,18,16,23,17.30
2010,07,18,16,24,17.30
2010,07,18,16,25,17.40
2010,07,18,16,26,17.30
2010,07,18,16,27,17.30
2010,07,18,16,28,17.40
2010,07,18,16,29,17.40
2010,07,18,16,30,17.50
2010,07,18,16,31,17.50
2010,07,18,16,32,17.50
2010,07,18,16,33,17.50
2010,07,18,16,34,17.60
2010,07,18,16,35,17.60
2010,07,18,16,36,17.60
2010,07,18,16,37,17.70
2010,07,18,16,38,17.70
2010,07,18,16,39,17.60
2010,07,18,16,40,17.50
2010,07,18,16,41,17.50
2010,07,18,16,42,17.50
2010,07,18,16,43,17.50
2010,07,18,16,44,17.50
2010,07,18,16,45,17.40
2010,07,18,16,46,17.20
2010,07,18,16,47,17.10
2010,07,18,16,48,17.10
2010,07,18,16,49,17.10
2010,07,18,16,50,17.10
2010,07,18,16,51,17.10
2010,07,18,16,52,17.10
2010,07,18,16,53,17.20
2010,07,18,16,54,17.30
2010,07,18,16,55,17.30
2010,07,18,16,56,17.30
2010,07,18,16,57,17.30
2010,07,18,16,58,17.20
2010,07,18,16,59,17.10
2010,07,18,17,00,17.00
2010,07,18,17,01,16.90
2010,07,18,17,02,16.70
2010,07,18,17,03,16.60
2010,07,18,17,04,16.50
2010,07,18,17,05,16.40
2010,07,18,17,06,16.30
2010,07,18,17,07,16.20
2010,07,18,17,08,16.10
2010,07,18,17,09,16.00
2010,07,18,17,10,15.90
2010,07,18,17,11,15.80
2010,07,18,17,12,15.80
2010,07,18,17,13,15.80
2010,07,18,17,14,15.80
2010,07,18,17,15,15.80
2010,07,18,17,16,15.80
2010,07,18,17,17,15.80
2010,07,18,17,18,15.80
2010,07,18,17,19,15.80